Simultaneous Nadir Overpasses (SNOs) Predictions

Prediction of SNOs between NOAA-19 and NPP Satellite Orbit:

Table of predicted SNOs for the next 14.0 days since TLE Epoch: 4/5/2016
Index Date (NOAA-19) Time (NOAA-19) Lat,Lon (NOAA-19) SZA (NOAA-19 ) Date (NPP) Time (NPP) Lat,Lon (NPP) SZA (NPP ) Distance(km) Time Diff (sec)
1 04/14/2016 02:03:44 -81.01, -84.04 104.85 04/14/2016 02:04:59 -81.00, -84.07 104.89 1.04 75
2 04/14/2016 02:54:41 81.01, 83.08 75.16 04/14/2016 02:55:44 81.01, 83.16 75.12 1.35 63
3 04/14/2016 03:45:46 -81.01,-109.49 104.88 04/14/2016 03:46:29 -81.00,-109.47 104.91 0.88 43
4 04/14/2016 04:36:43 81.01, 57.62 75.13 04/14/2016 04:37:14 81.01, 57.75 75.10 2.24 31
5 04/14/2016 05:27:48 -81.01,-134.95 104.91 04/14/2016 05:27:59 -81.00,-134.88 104.93 1.40 11
6 04/14/2016
